Weather History for Columbus, OH

Change the Weather History Date:

Tuesday, December 4, 2012

  Actual Average Record
Temperature  
Mean Temperature 53 °F 37 °F  
Max Temperature 63 °F 44 °F 68 °F (1982)
Min Temperature 42 °F 30 °F 3 °F (1966)
Degree Days  
Heating Degree Days 12 28  
Month to date heating degree days 43 110  
Since 1 July heating degree days 1160 1124  
Cooling Degree Days 0 0  
Month to date cooling degree days 0 0  
Year to date cooling degree days 1439 1024  
Growing Degree Days 3 (Base 50)    
Moisture  
Dew Point 50 °F    
Average Humidity 86    
Maximum Humidity 100    
Minimum Humidity 72    
Precipitation  
Precipitation 0.64 in 0.10 in 1.26 in (1916)
Month to date precipitation 1.20 0.38  
Year to date precipitation 32.77 36.72  
Snow  
Snow 0.00 in 0.10 in 2.90 in (1921)
Month to date snowfall 0.0 0.4  
Since 1 July snowfall 0.8 1.5  
Snow Depth 0.00 in    
Sea Level Pressure  
Sea Level Pressure 30.07 in    
Wind  
Wind Speed 11 mph (SW)    
Max Wind Speed 23 mph    
Max Gust Speed 30 mph    
Visibility 8 miles    
Events Rain    
T = Trace of Precipitation, MM = Missing Value Source: NWS Daily Summary

Daily Weather History Graph

Daily Weather History Graph

Search for Another Location

Airport:

Trip Planner

Search our weather history database for the weather conditions in past years. The results will help you decide how hot, cold, wet, or windy it might be!

Date:

Astronomy

Dec. 04, 2012 Rise Set
Actual Time 7:37 AM EST 5:06 PM EST
Civil Twilight 7:07 AM EST 5:36 PM EST
Nautical Twilight 6:33 AM EST 6:10 PM EST
Astronomical Twilight 6:00 AM EST 6:42 PM EST
Moon 10:52 PM EST (12/4) 11:31 AM EST (12/4)
Length of Visible Light 10h 29m
Length of Day
9h 28m
Waning Gibbous, 69% of the Moon is Illuminated
Dec 4
Waning Gibbous
Dec 6
Last Quarter
Dec 13
New
Dec 20
First Quarter
Dec 28
Full

Hourly Weather History & Observations

Time (EST) Temp. Windchill Dew Point Humidity Pressure Visibility Wind Dir Wind Speed Gust Speed Precip Events Conditions
12:51 AM 57.9 °F - 53.1 °F 84% 30.10 in 10.0 mi South 9.2 mph - N/A   Mostly Cloudy
1:51 AM 57.0 °F - 52.0 °F 83% 30.10 in 10.0 mi South 8.1 mph - N/A   Scattered Clouds
2:51 AM 59.0 °F - 51.1 °F 75% 30.10 in 10.0 mi South 11.5 mph - N/A   Overcast
3:51 AM 57.9 °F - 51.1 °F 78% 30.09 in 10.0 mi South 10.4 mph - N/A   Mostly Cloudy
4:51 AM 57.9 °F - 50.0 °F 75% 30.08 in 10.0 mi South 12.7 mph - N/A   Scattered Clouds
5:51 AM 57.0 °F - 48.9 °F 74% 30.07 in 10.0 mi South 11.5 mph - N/A   Clear
6:51 AM 57.9 °F - 50.0 °F 75% 30.08 in 10.0 mi South 11.5 mph - N/A   Overcast
7:51 AM 57.9 °F - 50.0 °F 75% 30.08 in 10.0 mi South 9.2 mph - N/A   Overcast
8:51 AM 59.0 °F - 51.1 °F 75% 30.08 in 10.0 mi South 8.1 mph - N/A   Overcast
9:51 AM 60.8 °F - 51.8 °F 72% 30.08 in 10.0 mi South 12.7 mph - N/A   Overcast
10:51 AM 61.0 °F - 52.0 °F 72% 30.08 in 10.0 mi SSW 11.5 mph - N/A   Overcast
11:51 AM 62.1 °F - 55.0 °F 78% 30.05 in 10.0 mi South 17.3 mph 24.2 mph N/A   Overcast
12:25 PM 62.6 °F - 55.4 °F 77% 30.03 in 10.0 mi SSW 19.6 mph 26.5 mph N/A   Overcast
12:51 PM 62.1 °F - 55.9 °F 80% 30.03 in 10.0 mi SSW 16.1 mph 23.0 mph N/A   Overcast
1:51 PM 63.0 °F - 57.0 °F 81% 30.00 in 10.0 mi SSW 15.0 mph - 0.00 in   Overcast
2:51 PM 62.1 °F - 57.0 °F 84% 29.99 in 10.0 mi South 13.8 mph - N/A   Overcast
3:39 PM 60.8 °F - 57.2 °F 88% 29.99 in 5.0 mi SSW 17.3 mph 23.0 mph 0.08 in Rain Light Rain
3:51 PM 61.0 °F - 57.9 °F 90% 29.99 in 7.0 mi SSW 13.8 mph 23.0 mph 0.09 in Rain Light Rain
4:46 PM 55.4 °F - 53.6 °F 94% 30.01 in 2.5 mi NNW 18.4 mph 24.2 mph 0.01 in Rain Rain
4:51 PM 55.0 °F - 53.1 °F 93% 30.02 in 4.0 mi NNW 16.1 mph 24.2 mph 0.15 in Rain Rain
4:53 PM 55.4 °F - 53.6 °F 94% 30.02 in 4.0 mi NNW 17.3 mph - 0.01 in Rain Rain
4:57 PM 53.6 °F - 51.8 °F 94% 30.02 in 4.0 mi NNW 15.0 mph - 0.02 in Rain Rain
5:21 PM 51.8 °F - 51.8 °F 100% 30.05 in 2.5 mi NNW 20.7 mph 24.2 mph 0.13 in Rain Heavy Rain
5:31 PM 50.0 °F - 48.2 °F 94% 30.07 in 4.0 mi NW 19.6 mph 29.9 mph 0.24 in Rain Heavy Rain
5:51 PM 48.0 °F - 45.0 °F 89% 30.07 in 4.0 mi NNW 16.1 mph 25.3 mph 0.30 in Rain Rain
6:08 PM 46.4 °F 40.4 °F 44.6 °F 93% 30.08 in 9.0 mi NNW 13.8 mph - 0.01 in Rain Light Rain
6:51 PM 46.0 °F 39.9 °F 42.1 °F 86% 30.12 in 10.0 mi NNW 13.8 mph - 0.03 in Rain Light Rain
7:51 PM 45.0 °F 42.6 °F 43.0 °F 93% 30.13 in 10.0 mi NNW 4.6 mph - 0.07 in Rain Light Rain
8:51 PM 46.0 °F 44.8 °F 43.0 °F 89% 30.15 in 10.0 mi WSW 3.5 mph - 0.00 in Rain Light Rain
9:51 PM 45.0 °F 43.5 °F 43.0 °F 93% 30.16 in 10.0 mi SSW 3.5 mph - 0.00 in   Overcast
10:51 PM 43.0 °F 41.3 °F 42.1 °F 97% 30.17 in 10.0 mi South 3.5 mph - N/A   Partly Cloudy
11:51 PM 42.8 °F 40.1 °F 41.0 °F 93% 30.18 in 10.0 mi South 4.6 mph - N/A   Scattered Clouds